Regional Weather Roundup
Issued by NWS Bismarck, ND

Home | Current Version | Previous Version | Text Only | Print | Product List | Glossary On
Versions: 1 2 3 4 5 6 7 8 9 10 11 12 13 14 15 16 17 18 19 20 21 22 23 24 25 26 27 28 29 30 31 32 33 34 35 36 37 38 39 40 41 42 43 44 45 46 47 48 49 50
000
ASUS43 KBIS 201802
RWRBIS

NWR BROADCAST TEXT
NATIONAL WEATHER SERVICE BISMARCK ND
100 PM CDT SUN MAY 20 2018

NOTE: "FAIR" INDICATES FEW OR NO CLOUDS BELOW 12,000 FEET WITH NO
SIGNIFICANT WEATHER AND/OR OBSTRUCTIONS TO VISIBILITY.


CITY           SKY/WX    TMP DP  RH WIND       PRES   REMARKS
WILLISTON      SUNNY     68  32  26 SE14G25   30.20F
MINOT          SUNNY     71  29  21 S14G20    30.21F
MINOT AFB      SUNNY     71  30  22 S14       30.20F
BISMARCK       SUNNY     65  34  31 SW9G17    30.26F
DICKINSON      SUNNY     64  35  34 SE20G30   30.21F
GARRISON         N/A     65  33  30 S13       30.23F
HETTINGER ARPT SUNNY     61  32  33 SE17G24   30.25F
JAMESTOWN      SUNNY     65  38  36 VRB6      30.25F
CARRINGTON     FAIR      68  34  28 CALM      30.27F
HAZEN          FAIR      68  32  26 SE16G23   30.25F
LINTON           N/A    N/A N/A N/A SE9G15    30.27F
MANDAN         FAIR      64  36  34 E12G18    30.26F
OAKES            N/A     64  36  34 E14       30.26F
STANLEY          N/A     66  34  30 S17G25    30.24F HAZE
TIOGA          FAIR      66  28  24 S22G30    30.22F
WATFORD CITY   FAIR      66  30  26 S16G25    30.19F
$$

CITY           SKY/WX    TMP DP  RH WIND       PRES   REMARKS
GRAND FORKS    FAIR      70  38  31 W8        30.22F
GRAND FORKS AF NOT AVBL
DEVILS LAKE    FAIR      67  33  28 SW5       30.25S
FARGO          FAIR      67  35  30 CALM      30.26F
CANDO          FAIR      72  32  23 SW9       30.24F
CAVALIER         N/A     73  34  23 VRB7G13   30.20S
GRAFTON        FAIR      72  39  30 SW8       30.23F
GWINNER          N/A     66  34  30 NE13      30.26F
LANGDON        FAIR      73  34  23 W8        30.23S
ROLLA          FAIR      70  28  21 VRB6G15   30.21F
WALHALLA       FAIR      73  30  20 SW3       30.20S
$$

CITY           SKY/WX    TMP DP  RH WIND       PRES   REMARKS
ABERDEEN       MOSUNNY   68  30  24 NE16G23   30.24F
MOBRIDGE       MOSUNNY   63  37  38 E9        30.23F
BUFFALO          N/A     62  34  35 S17G26    30.14F
RAPID CITY     MOSUNNY   56  37  49 S8        30.23F
GLASGOW        SUNNY     68  41  37 S24G31    30.09S
SIDNEY         SUNNY     66  37  34 SE20G25   30.18F
WOLF POINT     SUNNY     67  38  34 S14G22    30.14F
GLENDIVE       SUNNY     64  37  36 S18       30.17F
MILES CITY     SUNNY     64  42  44 SE21G28   30.12F
BAKER          SUNNY     61  35  37 SE23      30.19F
$$

CITY           SKY/WX    TMP DP  RH WIND       PRES   REMARKS
BILLINGS       MOSUNNY   61  46  57 NE5       30.08F
GREAT FALLS    SUNNY     69  46  43 S10       29.97F
$$





USA.gov is the U.S. government's official web portal to all federal, state and local government web resources and services.